Time,TemperatureF,DewpointF,PressureIn,WindDirection,WindDirectionDegrees,WindSpeedMPH,WindSpeedGustMPH,Humidity,HourlyPrecipIn,Conditions,Clouds,dailyrainin,SoftwareType,DateUTC
2013-07-07 00:01:00,79.0,75.8,28.94,SW,227,0.0,1.2,90,0.00,,FEW,0.00,WeatherDisplay:10.37,2013-07-07 05:01:00,
2013-07-07 00:06:00,78.9,75.7,28.94,South,185,0.0,0.0,90,0.00,,FEW,0.00,WeatherDisplay:10.37,2013-07-07 05:06:00,
2013-07-07 00:11:00,78.8,75.6,28.94,South,189,0.0,0.0,90,0.00,,FEW,0.00,WeatherDisplay:10.37,2013-07-07 05:11:00,
2013-07-07 00:16:00,78.7,75.5,28.94,SSE,161,0.0,0.0,90,0.00,,FEW,0.00,WeatherDisplay:10.37,2013-07-07 05:16:00,
2013-07-07 00:21:00,78.6,75.4,28.94,SSW,192,0.0,0.0,90,0.00,,FEW,0.00,WeatherDisplay:10.37,2013-07-07 05:21:00,
2013-07-07 00:26:00,78.5,75.3,28.94,SW,223,0.0,0.0,90,0.00,,FEW,0.00,WeatherDisplay:10.37,2013-07-07 05:26:00,
2013-07-07 00:31:00,78.4,75.2,28.95,SSE,147,0.0,0.0,90,0.00,,FEW,0.00,WeatherDisplay:10.37,2013-07-07 05:31:00,
2013-07-07 07:55:00,77.0,77.0,28.98,SW,218,0.0,0.0,100,0.00,,FEW,0.49,WeatherDisplay:10.37,2013-07-07 12:55:00,
2013-07-07 08:00:00,77.3,77.3,28.97,South,180,0.4,1.2,100,0.00,,FEW,0.49,WeatherDisplay:10.37,2013-07-07 13:00:00,
2013-07-07 08:05:00,77.5,77.5,28.98,South,182,1.3,2.3,100,0.00,,FEW,0.49,WeatherDisplay:10.37,2013-07-07 13:05:00,
2013-07-07 08:10:00,78.0,78.0,28.98,SSE,165,0.0,0.0,100,0.00,,FEW,0.49,WeatherDisplay:10.37,2013-07-07 13:10:00,
2013-07-07 08:15:00,78.2,76.6,28.98,West,259,0.2,1.2,95,0.00,,FEW,0.49,WeatherDisplay:10.37,2013-07-07 13:15:00,
2013-07-07 08:20:00,78.7,77.1,28.98,South,190,0.4,1.0,95,0.00,,FEW,0.49,WeatherDisplay:10.37,2013-07-07 13:20:00,
2013-07-07 08:25:00,78.9,77.0,28.98,SE,142,0.1,2.3,94,0.00,,FEW,0.49,WeatherDisplay:10.37,2013-07-07 13:25:00,
2013-07-07 08:30:00,79.2,76.7,28.99,SW,234,0.3,2.3,92,0.00,,FEW,0.49,WeatherDisplay:10.37,2013-07-07 13:30:00,
2013-07-07 08:35:00,79.4,76.5,28.99,South,182,2.5,4.2,91,0.00,,FEW,0.49,WeatherDisplay:10.37,2013-07-07 13:35:00,
2013-07-07 08:40:00,79.8,76.9,28.99,SW,232,1.8,3.5,91,0.00,,FEW,0.49,WeatherDisplay:10.37,2013-07-07 13:40:00,
2013-07-07 08:45:00,80.4,77.2,28.99,SW,230,0.0,0.0,90,0.00,,FEW,0.49,WeatherDisplay:10.37,2013-07-07 13:45:00,
2013-07-07 08:50:00,80.9,77.0,28.99,SW,234,0.1,1.2,88,0.00,,FEW,0.49,WeatherDisplay:10.37,2013-07-07 13:50:00,
2013-07-07 08:55:00,81.5,77.3,28.99,SSE,163,0.7,1.2,87,0.00,,FEW,0.49,WeatherDisplay:10.37,2013-07-07 13:55:00,
2013-07-07 09:00:00,81.8,76.8,28.99,SSE,154,1.1,2.3,85,0.00,,FEW,0.49,WeatherDisplay:10.37,2013-07-07 14:00:00,
2013-07-07 09:05:00,81.8,76.5,29.00,SSE,156,2.9,4.6,84,0.00,,FEW,0.49,WeatherDisplay:10.37,2013-07-07 14:05:00,
2013-07-07 09:10:00,82.2,76.9,29.00,ESE,118,0.8,2.3,84,0.00,,FEW,0.49,WeatherDisplay:10.37,2013-07-07 14:10:00,
2013-07-07 09:15:00,82.7,77.4,29.00,ESE,120,2.6,4.6,84,0.00,,FEW,0.49,WeatherDisplay:10.37,2013-07-07 14:15:00,
2013-07-07 09:20:00,82.8,77.1,29.00,SSE,148,0.1,2.3,83,0.00,,FEW,0.49,WeatherDisplay:10.37,2013-07-07 14:20:00,
2013-07-07 09:25:00,83.1,77.0,29.00,SSE,154,1.0,1.2,82,0.00,,FEW,0.49,WeatherDisplay:10.37,2013-07-07 14:25:00,
2013-07-07 09:30:00,83.4,76.6,29.00,SE,128,2.1,4.2,80,0.00,,FEW,0.49,WeatherDisplay:10.37,2013-07-07 14:30:00,
2013-07-07 09:35:00,83.5,76.3,29.01,ESE,122,1.5,4.6,79,0.00,,FEW,0.49,WeatherDisplay:10.37,2013-07-07 14:35:00,
2013-07-07 09:40:00,83.6,76.8,29.01,ESE,113,0.1,1.0,80,0.00,,FEW,0.49,WeatherDisplay:10.37,2013-07-07 14:40:00,
2013-07-07 09:45:00,83.7,76.1,29.01,East,99,4.6,6.9,78,0.00,,FEW,0.49,WeatherDisplay:10.37,2013-07-07 14:45:00,
2013-07-07 09:50:00,83.9,76.7,29.01,SE,132,0.5,3.2,79,0.00,,FEW,0.49,WeatherDisplay:10.37,2013-07-07 14:50:00,
2013-07-07 09:55:00,83.8,75.8,29.01,ESE,107,3.6,5.8,77,0.00,,FEW,0.49,WeatherDisplay:10.37,2013-07-07 14:55:00,
2013-07-07 10:00:00,83.9,76.3,29.02,East,100,4.5,5.2,78,0.00,,FEW,0.49,WeatherDisplay:10.37,2013-07-07 15:00:00,
2013-07-07 10:05:00,83.9,75.9,29.02,East,97,3.8,3.8,77,0.00,,FEW,0.49,WeatherDisplay:10.37,2013-07-07 15:05:00,
2013-07-07 10:10:00,83.9,75.9,29.02,SE,133,4.5,5.8,77,0.00,,FEW,0.49,WeatherDisplay:10.37,2013-07-07 15:10:00,
2013-07-07 10:15:00,84.4,76.0,29.02,SSE,156,4.2,4.2,76,0.00,,FEW,0.49,WeatherDisplay:10.37,2013-07-07 15:15:00,
2013-07-07 10:20:00,84.3,75.5,29.02,SSE,148,3.2,5.8,75,0.00,,FEW,0.49,WeatherDisplay:10.37,2013-07-07 15:20:00,
2013-07-07 10:25:00,84.6,77.0,29.02,SE,144,3.4,3.4,78,0.00,,FEW,0.49,WeatherDisplay:10.37,2013-07-07 15:25:00,
2013-07-07 10:30:00,84.5,76.1,29.02,South,187,3.7,4.6,76,0.00,,FEW,0.49,WeatherDisplay:10.37,2013-07-07 15:30:00,
2013-07-07 10:31:00,84.5,76.1,29.02,SE,135,3.3,5.8,76,0.00,,FEW,0.49,WeatherDisplay:10.37,2013-07-07 15:31:00,
2013-07-07 10:36:00,84.9,76.5,29.02,South,170,3.2,4.6,76,0.00,,FEW,0.49,WeatherDisplay:10.37,2013-07-07 15:36:00,
2013-07-07 10:41:00,85.1,77.1,29.02,ESE,107,2.2,5.8,77,0.00,,FEW,0.49,WeatherDisplay:10.37,2013-07-07 15:41:00,
2013-07-07 10:46:00,85.5,76.7,29.02,ESE,117,2.6,7.4,75,0.00,,FEW,0.49,WeatherDisplay:10.37,2013-07-07 15:46:00,
2013-07-07 10:51:00,85.2,76.4,29.02,SSE,168,0.1,2.1,75,0.00,,FEW,0.49,WeatherDisplay:10.37,2013-07-07 15:51:00,
2013-07-07 10:56:00,85.7,77.3,29.01,ESE,113,0.3,5.2,76,0.00,,FEW,0.49,WeatherDisplay:10.37,2013-07-07 15:56:00,
2013-07-07 11:01:00,85.4,76.2,29.01,SSW,192,4.2,6.3,74,0.00,,FEW,0.49,WeatherDisplay:10.37,2013-07-07 16:01:00,
2013-07-07 11:06:00,85.5,76.3,29.01,East,99,4.4,6.9,74,0.00,,FEW,0.49,WeatherDisplay:10.37,2013-07-07 16:06:00,
2013-07-07 11:11:00,85.5,76.3,29.01,ESE,123,4.4,8.1,74,0.00,,FEW,0.49,WeatherDisplay:10.37,2013-07-07 16:11:00,
2013-07-07 11:16:00,85.5,76.7,29.01,SSW,213,2.4,5.8,75,0.00,,FEW,0.49,WeatherDisplay:10.37,2013-07-07 16:16:00,
2013-07-07 11:21:00,85.2,76.4,29.01,SE,146,3.4,5.8,75,0.00,,FEW,0.49,WeatherDisplay:10.37,2013-07-07 16:21:00,
2013-07-07 11:26:00,85.6,76.8,29.01,South,178,3.9,5.8,75,0.00,,FEW,0.49,WeatherDisplay:10.37,2013-07-07 16:26:00,
2013-07-07 11:31:00,85.6,76.4,29.01,SSW,204,4.1,6.9,74,0.00,,FEW,0.49,WeatherDisplay:10.37,2013-07-07 16:31:00,
2013-07-07 11:36:00,86.0,76.3,29.01,SSE,148,7.9,9.2,73,0.00,,FEW,0.49,WeatherDisplay:10.37,2013-07-07 16:36:00,
2013-07-07 11:41:00,85.8,76.5,29.01,SE,128,5.2,6.9,74,0.00,,FEW,0.49,WeatherDisplay:10.37,2013-07-07 16:41:00,
2013-07-07 11:46:00,85.6,76.8,29.01,SE,140,6.5,11.5,75,0.00,,FEW,0.49,WeatherDisplay:10.37,2013-07-07 16:46:00,
2013-07-07 11:51:00,85.4,76.2,29.02,SSE,153,5.1,6.9,74,0.00,,FEW,0.49,WeatherDisplay:10.37,2013-07-07 16:51:00,
2013-07-07 11:56:00,85.3,76.5,29.02,East,84,5.1,6.9,75,0.00,,FEW,0.49,WeatherDisplay:10.37,2013-07-07 16:56:00,
2013-07-07 12:01:00,85.6,76.8,29.02,SSE,147,1.3,5.8,75,0.00,,FEW,0.49,WeatherDisplay:10.37,2013-07-07 17:01:00,
2013-07-07 12:06:00,85.8,77.0,29.02,ESE,116,4.4,8.1,75,0.00,,FEW,0.49,WeatherDisplay:10.37,2013-07-07 17:06:00,
2013-07-07 12:11:00,85.5,76.7,29.01,South,186,7.2,9.2,75,0.00,,FEW,0.49,WeatherDisplay:10.37,2013-07-07 17:11:00,
2013-07-07 12:16:00,85.7,77.3,29.01,SE,125,4.9,8.1,76,0.00,,FEW,0.49,WeatherDisplay:10.37,2013-07-07 17:16:00,
2013-07-07 12:21:00,86.3,77.4,29.01,SSE,151,6.3,6.9,75,0.00,,FEW,0.49,WeatherDisplay:10.37,2013-07-07 17:21:00,
2013-07-07 12:26:00,86.3,77.0,29.02,SE,132,6.3,6.9,74,0.00,,FEW,0.49,WeatherDisplay:10.37,2013-07-07 17:26:00,
2013-07-07 12:31:00,86.1,77.2,29.01,ESE,104,5.0,6.9,75,0.00,,FEW,0.49,WeatherDisplay:10.37,2013-07-07 17:31:00,
2013-07-07 12:36:00,86.1,77.2,29.02,East,96,6.7,8.1,75,0.00,,FEW,0.49,WeatherDisplay:10.37,2013-07-07 17:36:00,
2013-07-07 12:41:00,85.7,76.9,29.01,SE,124,7.2,15.0,75,0.00,,FEW,0.49,WeatherDisplay:10.37,2013-07-07 17:41:00,
2013-07-07 12:46:00,85.7,77.3,29.01,SSW,201,6.5,9.2,76,0.00,,FEW,0.49,WeatherDisplay:10.37,2013-07-07 17:46:00,
2013-07-07 12:51:00,86.1,77.2,29.01,SE,129,7.6,10.4,75,0.00,,FEW,0.49,WeatherDisplay:10.37,2013-07-07 17:51:00,
2013-07-07 12:56:00,86.2,77.7,29.01,SSE,156,2.4,9.5,76,0.00,,FEW,0.49,WeatherDisplay:10.37,2013-07-07 17:56:00,
2013-07-07 13:01:00,86.6,77.7,29.01,NE,40,10.8,11.5,75,0.00,,FEW,0.49,WeatherDisplay:10.37,2013-07-07 18:01:00,
2013-07-07 13:06:00,86.6,77.7,29.02,WSW,255,7.5,9.5,75,0.00,,FEW,0.49,WeatherDisplay:10.37,2013-07-07 18:06:00,
2013-07-07 13:11:00,86.4,77.5,29.02,SSE,152,6.7,11.5,75,0.00,,FEW,0.49,WeatherDisplay:10.37,2013-07-07 18:11:00,
2013-07-07 13:16:00,86.7,78.2,29.01,East,85,3.9,5.8,76,0.00,,FEW,0.49,WeatherDisplay:10.37,2013-07-07 18:16:00,
2013-07-07 13:21:00,86.5,77.6,29.02,SE,137,8.3,11.5,75,0.00,,FEW,0.49,WeatherDisplay:10.37,2013-07-07 18:21:00,
2013-07-07 13:26:00,86.5,78.4,29.01,SSE,148,8.2,15.0,77,0.00,,FEW,0.49,WeatherDisplay:10.37,2013-07-07 18:26:00,
2013-07-07 13:31:00,86.5,78.0,29.01,East,92,6.3,8.1,76,0.00,,FEW,0.49,WeatherDisplay:10.37,2013-07-07 18:31:00,
2013-07-07 13:36:00,86.5,78.4,29.01,SSE,151,7.6,11.5,77,0.00,,FEW,0.49,WeatherDisplay:10.37,2013-07-07 18:36:00,
2013-07-07 13:41:00,86.5,77.2,29.01,SE,140,7.5,11.5,74,0.00,,FEW,0.49,WeatherDisplay:10.37,2013-07-07 18:41:00,
2013-07-07 13:46:00,86.4,77.5,29.01,ESE,111,8.8,10.4,75,0.00,,FEW,0.49,WeatherDisplay:10.37,2013-07-07 18:46:00,
2013-07-07 13:51:00,86.5,77.6,29.01,ESE,122,8.1,11.5,75,0.00,,FEW,0.49,WeatherDisplay:10.37,2013-07-07 18:51:00,
2013-07-07 13:56:00,86.3,77.8,29.01,SSE,147,7.0,11.5,76,0.00,,FEW,0.49,WeatherDisplay:10.37,2013-07-07 18:56:00,
2013-07-07 14:01:00,86.1,77.6,29.02,SE,137,10.0,13.8,76,0.00,,FEW,0.49,WeatherDisplay:10.37,2013-07-07 19:01:00,
2013-07-07 14:06:00,85.9,78.2,29.01,ESE,120,4.1,6.9,78,0.00,,FEW,0.49,WeatherDisplay:10.37,2013-07-07 19:06:00,
2013-07-07 14:11:00,86.1,77.6,29.02,SE,137,9.1,12.6,76,0.00,,FEW,0.49,WeatherDisplay:10.37,2013-07-07 19:11:00,
2013-07-07 14:16:00,85.8,77.4,29.01,SE,134,6.7,12.7,76,0.00,,FEW,0.49,WeatherDisplay:10.37,2013-07-07 19:16:00,
2013-07-07 14:21:00,85.9,77.8,29.01,SSE,152,8.0,15.0,77,0.00,,FEW,0.49,WeatherDisplay:10.37,2013-07-07 19:21:00,
2013-07-07 14:26:00,85.9,77.8,29.01,SE,140,3.8,5.8,77,0.00,,FEW,0.49,WeatherDisplay:10.37,2013-07-07 19:26:00,
2013-07-07 14:31:00,85.8,77.4,29.01,SSE,147,5.5,9.2,76,0.00,,FEW,0.49,WeatherDisplay:10.37,2013-07-07 19:31:00,
2013-07-07 14:36:00,85.4,76.6,29.01,East,90,5.2,8.1,75,0.00,,FEW,0.49,WeatherDisplay:10.37,2013-07-07 19:36:00,
2013-07-07 14:41:00,85.4,76.6,29.01,ESE,108,7.1,10.4,75,0.00,,FEW,0.49,WeatherDisplay:10.37,2013-07-07 19:41:00,
2013-07-07 14:46:00,85.9,76.6,29.01,SE,125,7.9,15.0,74,0.00,,FEW,0.49,WeatherDisplay:10.37,2013-07-07 19:46:00,
2013-07-07 14:51:00,85.5,75.9,29.01,ESE,116,9.0,15.0,73,0.00,,FEW,0.49,WeatherDisplay:10.37,2013-07-07 19:51:00,
2013-07-07 14:56:00,85.4,76.2,29.01,SSW,196,8.5,11.5,74,0.00,,FEW,0.49,WeatherDisplay:10.37,2013-07-07 19:56:00,
2013-07-07 15:01:00,85.8,76.1,29.01,SW,221,11.1,17.3,73,0.00,,FEW,0.49,WeatherDisplay:10.37,2013-07-07 20:01:00,
2013-07-07 15:06:00,85.4,76.6,29.01,SSE,148,8.1,10.4,75,0.00,,FEW,0.49,WeatherDisplay:10.37,2013-07-07 20:06:00,
2013-07-07 15:11:00,84.9,76.5,29.01,ESE,116,9.2,12.7,76,0.00,,FEW,0.49,WeatherDisplay:10.37,2013-07-07 20:11:00,
2013-07-07 15:16:00,84.3,76.7,29.01,South,175,6.2,15.0,78,0.00,,FEW,0.49,WeatherDisplay:10.37,2013-07-07 20:16:00,
2013-07-07 15:21:00,83.7,76.9,29.02,SE,135,8.4,9.2,80,0.00,,FEW,0.49,WeatherDisplay:10.37,2013-07-07 20:21:00,
2013-07-07 15:26:00,83.2,76.8,29.02,SSE,149,7.4,11.5,81,0.00,,FEW,0.49,WeatherDisplay:10.37,2013-07-07 20:26:00,
2013-07-07 15:31:00,83.0,76.6,29.01,SE,126,8.1,9.2,81,0.00,,FEW,0.49,WeatherDisplay:10.37,2013-07-07 20:31:00,
2013-07-07 15:36:00,82.9,76.5,29.01,ESE,114,7.4,9.2,81,0.00,,FEW,0.49,WeatherDisplay:10.37,2013-07-07 20:36:00,
2013-07-07 15:41:00,82.9,76.5,29.01,SE,130,9.1,12.7,81,0.00,,FEW,0.49,WeatherDisplay:10.37,2013-07-07 20:41:00,
2013-07-07 15:46:00,83.4,77.0,29.01,ENE,77,4.5,8.1,81,0.00,,FEW,0.49,WeatherDisplay:10.37,2013-07-07 20:46:00,
2013-07-07 15:51:00,83.3,76.1,29.00,SSE,147,8.0,12.7,79,0.00,,FEW,0.49,WeatherDisplay:10.37,2013-07-07 20:51:00,
2013-07-07 15:56:00,83.8,76.2,29.00,ESE,118,9.3,13.8,78,0.00,,FEW,0.49,WeatherDisplay:10.37,2013-07-07 20:56:00,
2013-07-07 16:01:00,84.1,76.1,29.00,SE,126,8.6,12.7,77,0.00,,FEW,0.49,WeatherDisplay:10.37,2013-07-07 21:01:00,
2013-07-07 16:06:00,84.3,76.3,28.99,ESE,112,9.3,11.5,77,0.00,,FEW,0.49,WeatherDisplay:10.37,2013-07-07 21:06:00,
2013-07-07 16:11:00,84.8,76.4,28.99,ESE,122,6.5,10.4,76,0.00,,FEW,0.49,WeatherDisplay:10.37,2013-07-07 21:11:00,
2013-07-07 16:16:00,84.8,76.0,28.99,ESE,102,7.6,11.5,75,0.00,,FEW,0.49,WeatherDisplay:10.37,2013-07-07 21:16:00,
2013-07-07 16:21:00,85.0,75.4,28.99,SE,140,11.0,13.8,73,0.00,,FEW,0.49,WeatherDisplay:10.37,2013-07-07 21:21:00,
2013-07-07 16:26:00,85.1,74.6,28.99,South,173,8.0,12.7,71,0.00,,FEW,0.49,WeatherDisplay:10.37,2013-07-07 21:26:00,
2013-07-07 16:31:00,85.2,73.4,28.99,SSE,162,10.0,12.7,68,0.00,,FEW,0.49,WeatherDisplay:10.37,2013-07-07 21:31:00,
2013-07-07 16:36:00,85.1,72.5,29.00,East,90,12.4,15.0,66,0.00,,FEW,0.49,WeatherDisplay:10.37,2013-07-07 21:36:00,
2013-07-07 16:41:00,85.2,74.7,28.99,ESE,109,7.0,11.5,71,0.00,,FEW,0.49,WeatherDisplay:10.37,2013-07-07 21:41:00,
2013-07-07 16:46:00,85.1,75.1,28.99,ESE,105,10.2,13.8,72,0.00,,FEW,0.49,WeatherDisplay:10.37,2013-07-07 21:46:00,
2013-07-07 16:51:00,84.7,75.1,28.99,East,83,9.3,16.1,73,0.00,,FEW,0.49,WeatherDisplay:10.37,2013-07-07 21:51:00,
2013-07-07 16:56:00,84.6,75.4,28.99,SE,125,14.6,28.8,74,0.00,,FEW,0.49,WeatherDisplay:10.37,2013-07-07 21:56:00,
2013-07-07 17:01:00,84.6,76.6,28.99,SSE,158,10.8,13.8,77,0.00,,FEW,0.49,WeatherDisplay:10.37,2013-07-07 22:01:00,
2013-07-07 17:06:00,84.8,76.8,29.00,ESE,111,5.7,12.7,77,0.00,,FEW,0.49,WeatherDisplay:10.37,2013-07-07 22:06:00,
2013-07-07 17:11:00,84.6,76.6,28.99,SW,218,7.7,13.8,77,0.00,,FEW,0.49,WeatherDisplay:10.37,2013-07-07 22:11:00,
2013-07-07 17:16:00,84.8,76.8,29.00,South,183,10.1,16.1,77,0.00,,FEW,0.49,WeatherDisplay:10.37,2013-07-07 22:16:00,
2013-07-07 17:21:00,83.9,76.7,29.00,SSE,151,13.1,15.0,79,0.00,,FEW,0.49,WeatherDisplay:10.37,2013-07-07 22:21:00,
2013-07-07 17:26:00,82.8,76.4,29.00,South,176,10.3,18.4,81,0.00,,FEW,0.49,WeatherDisplay:10.37,2013-07-07 22:26:00,
2013-07-07 17:31:00,81.9,76.2,28.99,SE,135,8.1,17.3,83,0.00,,FEW,0.49,WeatherDisplay:10.37,2013-07-07 22:31:00,
2013-07-07 17:36:00,81.4,75.7,28.99,SE,128,13.6,23.0,83,0.00,,FEW,0.49,WeatherDisplay:10.37,2013-07-07 22:36:00,
2013-07-07 17:41:00,80.9,75.6,28.99,ESE,119,9.9,16.1,84,0.00,,FEW,0.49,WeatherDisplay:10.37,2013-07-07 22:41:00,
2013-07-07 17:46:00,80.6,75.0,28.99,SSW,194,8.5,11.5,83,0.00,,FEW,0.49,WeatherDisplay:10.37,2013-07-07 22:46:00,
2013-07-07 17:51:00,81.0,75.7,28.99,SSE,166,4.0,8.1,84,0.00,,FEW,0.49,WeatherDisplay:10.37,2013-07-07 22:51:00,
2013-07-07 17:56:00,81.1,75.1,28.99,SSE,158,6.4,10.4,82,0.00,,FEW,0.49,WeatherDisplay:10.37,2013-07-07 22:56:00,
2013-07-07 18:01:00,81.1,75.4,28.99,SSW,204,7.5,11.5,83,0.00,,FEW,0.49,WeatherDisplay:10.37,2013-07-07 23:01:00,
2013-07-07 18:06:00,81.0,75.7,28.99,SSE,167,5.8,8.1,84,0.00,,FEW,0.49,WeatherDisplay:10.37,2013-07-07 23:06:00,
2013-07-07 18:11:00,81.0,76.1,28.99,SE,137,8.4,11.5,85,0.00,,FEW,0.49,WeatherDisplay:10.37,2013-07-07 23:11:00,
2013-07-07 18:16:00,80.9,75.6,28.99,SE,144,5.9,9.2,84,0.00,,FEW,0.49,WeatherDisplay:10.37,2013-07-07 23:16:00,
2013-07-07 18:21:00,80.9,74.9,28.99,SSE,150,7.8,9.2,82,0.00,,FEW,0.49,WeatherDisplay:10.37,2013-07-07 23:21:00,
2013-07-07 18:26:00,81.1,74.7,28.99,SSE,168,2.3,5.8,81,0.00,,FEW,0.49,WeatherDisplay:10.37,2013-07-07 23:26:00,
2013-07-07 18:31:00,81.0,74.6,28.99,South,178,8.7,12.7,81,0.00,,FEW,0.49,WeatherDisplay:10.37,2013-07-07 23:31:00,
2013-07-07 18:36:00,80.8,74.8,28.99,SW,225,8.2,10.4,82,0.00,,FEW,0.49,WeatherDisplay:10.37,2013-07-07 23:36:00,
2013-07-07 18:41:00,80.8,74.4,28.99,SE,146,10.1,10.5,81,0.00,,FEW,0.49,WeatherDisplay:10.37,2013-07-07 23:41:00,
2013-07-07 18:46:00,80.7,74.7,28.99,East,97,9.7,12.7,82,0.00,,FEW,0.49,WeatherDisplay:10.37,2013-07-07 23:46:00,
2013-07-07 18:51:00,80.6,74.6,28.99,SE,145,7.1,10.4,82,0.00,,FEW,0.49,WeatherDisplay:10.37,2013-07-07 23:51:00,
2013-07-07 18:56:00,80.5,74.9,28.99,SSW,205,5.4,9.2,83,0.00,,FEW,0.49,WeatherDisplay:10.37,2013-07-07 23:56:00,
2013-07-07 19:01:00,80.4,74.8,28.98,WSW,253,8.7,10.4,83,0.00,,FEW,0.49,WeatherDisplay:10.37,2013-07-08 00:01:00,
2013-07-07 19:06:00,80.3,75.0,28.98,SE,141,8.8,12.7,84,0.00,,FEW,0.49,WeatherDisplay:10.37,2013-07-08 00:06:00,
2013-07-07 19:11:00,80.2,74.9,28.99,SSE,161,7.6,10.4,84,0.00,,FEW,0.49,WeatherDisplay:10.37,2013-07-08 00:11:00,
2013-07-07 19:16:00,80.2,75.3,28.98,SSE,165,4.7,10.4,85,0.00,,FEW,0.49,WeatherDisplay:10.37,2013-07-08 00:16:00,
2013-07-07 19:21:00,80.2,74.9,28.98,SE,140,7.6,10.4,84,0.00,,FEW,0.49,WeatherDisplay:10.37,2013-07-08 00:21:00,
2013-07-07 19:26:00,80.1,74.8,28.98,SE,146,3.4,7.4,84,0.00,,FEW,0.49,WeatherDisplay:10.37,2013-07-08 00:26:00,
2013-07-07 19:31:00,80.0,74.4,28.98,SSE,154,6.1,10.4,83,0.00,,FEW,0.49,WeatherDisplay:10.37,2013-07-08 00:31:00,
2013-07-07 19:36:00,80.0,74.7,28.99,South,170,3.1,4.6,84,0.00,,FEW,0.49,WeatherDisplay:10.37,2013-07-08 00:36:00,
2013-07-07 19:41:00,79.9,74.6,28.99,SE,135,6.1,6.9,84,0.00,,FEW,0.49,WeatherDisplay:10.37,2013-07-08 00:41:00,
2013-07-07 19:46:00,80.0,74.7,28.99,SE,144,7.4,11.5,84,0.00,,FEW,0.49,WeatherDisplay:10.37,2013-07-08 00:46:00,
2013-07-07 19:51:00,79.9,74.6,28.99,SSE,147,4.0,9.2,84,0.00,,FEW,0.49,WeatherDisplay:10.37,2013-07-08 00:51:00,
2013-07-07 19:56:00,79.9,75.0,28.99,SE,132,4.6,5.8,85,0.00,,FEW,0.49,WeatherDisplay:10.37,2013-07-08 00:56:00,
2013-07-07 20:01:00,79.9,75.0,28.99,SSE,166,2.6,9.2,85,0.00,,FEW,0.49,WeatherDisplay:10.37,2013-07-08 01:01:00,
2013-07-07 20:06:00,79.8,74.9,28.99,South,178,6.6,10.4,85,0.00,,FEW,0.49,WeatherDisplay:10.37,2013-07-08 01:06:00,
2013-07-07 20:11:00,79.7,74.8,28.99,South,174,4.4,6.9,85,0.00,,FEW,0.49,WeatherDisplay:10.37,2013-07-08 01:11:00,
2013-07-07 20:16:00,79.7,75.1,28.99,SE,132,6.7,8.1,86,0.00,,FEW,0.49,WeatherDisplay:10.37,2013-07-08 01:16:00,
2013-07-07 20:21:00,79.6,75.0,28.99,South,175,8.3,11.5,86,0.00,,FEW,0.49,WeatherDisplay:10.37,2013-07-08 01:21:00,
2013-07-07 20:26:00,79.4,74.5,28.99,ESE,123,4.7,6.9,85,0.00,,FEW,0.49,WeatherDisplay:10.37,2013-07-08 01:26:00,
2013-07-07 20:31:00,79.4,74.5,28.99,South,182,4.5,9.2,85,0.00,,FEW,0.49,WeatherDisplay:10.37,2013-07-08 01:31:00,
2013-07-07 20:36:00,79.3,74.4,28.99,WSW,248,4.1,8.1,85,0.00,,FEW,0.49,WeatherDisplay:10.37,2013-07-08 01:36:00,
2013-07-07 20:41:00,79.2,73.9,29.00,SSE,156,4.6,8.1,84,0.00,,FEW,0.49,WeatherDisplay:10.37,2013-07-08 01:41:00,
2013-07-07 20:46:00,79.2,73.9,29.00,SSW,211,3.8,6.9,84,0.00,,FEW,0.49,WeatherDisplay:10.37,2013-07-08 01:46:00,
2013-07-07 20:51:00,79.2,74.3,29.00,ESE,119,3.5,7.4,85,0.00,,FEW,0.49,WeatherDisplay:10.37,2013-07-08 01:51:00,
2013-07-07 20:56:00,79.1,73.8,29.00,SE,135,4.5,9.5,84,0.00,,FEW,0.49,WeatherDisplay:10.37,2013-07-08 01:56:00,
2013-07-07 21:01:00,79.1,73.8,29.00,SSE,163,4.9,5.8,84,0.00,,FEW,0.49,WeatherDisplay:10.37,2013-07-08 02:01:00,
2013-07-07 21:06:00,79.1,73.8,29.00,South,179,3.4,5.8,84,0.00,,FEW,0.49,WeatherDisplay:10.37,2013-07-08 02:06:00,
2013-07-07 21:11:00,79.1,73.8,29.00,SE,141,4.6,6.9,84,0.00,,FEW,0.49,WeatherDisplay:10.37,2013-07-08 02:11:00,
2013-07-07 21:16:00,79.1,73.8,29.00,SSE,167,2.6,5.8,84,0.00,,FEW,0.49,WeatherDisplay:10.37,2013-07-08 02:16:00,
2013-07-07 21:21:00,79.1,73.8,29.01,SE,133,5.4,6.9,84,0.00,,FEW,0.49,WeatherDisplay:10.37,2013-07-08 02:21:00,
2013-07-07 21:26:00,79.1,73.8,29.01,SE,124,5.0,8.1,84,0.00,,FEW,0.49,WeatherDisplay:10.37,2013-07-08 02:26:00,
2013-07-07 21:31:00,79.1,73.8,29.01,SE,139,3.9,6.9,84,0.00,,FEW,0.49,WeatherDisplay:10.37,2013-07-08 02:31:00,
2013-07-07 21:36:00,79.1,74.2,29.01,SSE,147,4.7,11.5,85,0.00,,FEW,0.49,WeatherDisplay:10.37,2013-07-08 02:36:00,
2013-07-07 21:41:00,79.2,74.3,29.01,SSE,158,4.9,6.9,85,0.00,,FEW,0.49,WeatherDisplay:10.37,2013-07-08 02:41:00,
2013-07-07 21:46:00,79.2,74.6,29.01,SSE,159,5.6,8.1,86,0.00,,FEW,0.49,WeatherDisplay:10.37,2013-07-08 02:46:00,
2013-07-07 21:51:00,79.1,74.5,29.01,SSE,156,3.3,5.8,86,0.00,,FEW,0.49,WeatherDisplay:10.37,2013-07-08 02:51:00,
2013-07-07 21:56:00,79.0,74.5,29.01,SE,124,2.6,5.2,86,0.00,,FEW,0.49,WeatherDisplay:10.37,2013-07-08 02:56:00,
2013-07-07 22:01:00,79.0,74.5,29.01,SSE,152,3.2,6.3,86,0.00,,FEW,0.49,WeatherDisplay:10.37,2013-07-08 03:01:00,
2013-07-07 22:06:00,79.0,74.5,29.01,South,169,4.6,6.9,86,0.00,,FEW,0.49,WeatherDisplay:10.37,2013-07-08 03:06:00,
2013-07-07 22:11:00,79.0,74.5,29.01,SE,138,2.1,3.5,86,0.00,,FEW,0.49,WeatherDisplay:10.37,2013-07-08 03:11:00,
2013-07-07 22:16:00,79.0,74.5,29.01,SE,133,6.2,9.2,86,0.00,,FEW,0.49,WeatherDisplay:10.37,2013-07-08 03:16:00,
2013-07-07 22:21:00,79.0,74.8,29.02,SE,133,2.1,5.8,87,0.00,,FEW,0.49,WeatherDisplay:10.37,2013-07-08 03:21:00,
2013-07-07 22:26:00,79.0,74.8,29.02,South,179,4.2,6.9,87,0.00,,FEW,0.49,WeatherDisplay:10.37,2013-07-08 03:26:00,
2013-07-07 22:31:00,79.0,74.8,29.02,SE,128,5.1,8.1,87,0.00,,FEW,0.49,WeatherDisplay:10.37,2013-07-08 03:31:00,
2013-07-07 22:36:00,79.1,74.9,29.02,SSE,152,7.3,9.5,87,0.00,,FEW,0.49,WeatherDisplay:10.37,2013-07-08 03:36:00,
2013-07-07 22:41:00,79.1,74.9,29.02,South,173,4.7,6.9,87,0.00,,FEW,0.49,WeatherDisplay:10.37,2013-07-08 03:41:00,
2013-07-07 22:46:00,79.1,75.2,29.02,SE,141,6.7,9.2,88,0.00,,FEW,0.49,WeatherDisplay:10.37,2013-07-08 03:46:00,
2013-07-07 22:51:00,79.1,75.2,29.02,South,190,5.2,9.5,88,0.00,,FEW,0.49,WeatherDisplay:10.37,2013-07-08 03:51:00,
2013-07-07 22:56:00,79.1,75.2,29.03,SE,142,3.4,5.8,88,0.00,,FEW,0.49,WeatherDisplay:10.37,2013-07-08 03:56:00,
2013-07-07 23:01:00,79.2,75.3,29.03,SE,142,3.4,8.1,88,0.00,,FEW,0.49,WeatherDisplay:10.37,2013-07-08 04:01:00,
2013-07-07 23:06:00,79.2,75.7,29.03,WSW,245,4.0,8.1,89,0.00,,FEW,0.49,WeatherDisplay:10.37,2013-07-08 04:06:00,
2013-07-07 23:11:00,79.2,75.7,29.03,ENE,60,8.7,8.7,89,0.00,,FEW,0.49,WeatherDisplay:10.37,2013-07-08 04:11:00,
2013-07-07 23:16:00,79.3,75.8,29.03,SSE,155,4.9,5.8,89,0.00,,FEW,0.49,WeatherDisplay:10.37,2013-07-08 04:16:00,
2013-07-07 23:21:00,79.3,75.8,29.04,South,176,7.1,9.5,89,0.00,,FEW,0.49,WeatherDisplay:10.37,2013-07-08 04:21:00,
2013-07-07 23:26:00,79.3,75.8,29.04,South,175,4.2,7.4,89,0.00,,FEW,0.49,WeatherDisplay:10.37,2013-07-08 04:26:00,
2013-07-07 23:31:00,79.2,75.3,29.04,South,189,9.8,15.0,88,0.00,,FEW,0.49,WeatherDisplay:10.37,2013-07-08 04:31:00,
2013-07-07 23:36:00,79.3,75.4,29.04,ENE,77,8.0,10.4,88,0.00,,FEW,0.49,WeatherDisplay:10.37,2013-07-08 04:36:00,
2013-07-07 23:41:00,79.3,75.1,29.04,South,182,7.4,8.1,87,0.00,,FEW,0.49,WeatherDisplay:10.37,2013-07-08 04:41:00,
2013-07-07 23:46:00,79.4,75.2,29.04,ESE,111,9.0,12.7,87,0.00,,FEW,0.49,WeatherDisplay:10.37,2013-07-08 04:46:00,
2013-07-07 23:51:00,79.4,75.5,29.04,SSE,167,7.0,11.5,88,0.00,,FEW,0.49,WeatherDisplay:10.37,2013-07-08 04:51:00,
2013-07-07 23:56:00,79.4,75.5,29.04,South,182,10.8,12.7,88,0.00,,FEW,0.49,WeatherDisplay:10.37,2013-07-08 04:56:00,